Tracking 18980 objects as of 19-Feb-2018
HD Live streaming from Space Station
objects crossing your sky now

FENGYUN 1C DEB

Track FENGYUN 1C DEB now!
10-day predictions


NORAD ID: 31183
Int'l Code: 1999-025BJM
Perigee: 746.8 km
Apogee: 840.7 km
Inclination: 99.1 °
Period: 100.6 minutes
Semi major axis: 7164 km
RCS: 0.0164 m2 (small)
Launch date: May 10, 1999
Source: People's Republic of China (PRC)
Launch site: Taiyaun Space Center, China (TSC)

Note: This is SATELLITE DEBRIS
aabbcc
Your satellite tracking list
Your tracking list is empty




NASA's NSSDC Master Catalog

Two Line Element Set (TLE):
1 31183U 99025BJM 18050.35194713  .00000477  00000-0  19275-3 0  9993
2 31183  99.0774 225.3434 0065517 187.9549 290.2601 14.31542042565691
Source of the keplerian elements: AFSPC